Location: Waldport
(44.4270°N, 124.0680°W)
Time: 22:48:38
(UTC-08:00)

Daily predictions for brighter satellites

Satellite Brightness Start Highest point End
(mag) Time Altitude Azimuth Time Altitude Azimuth Time Altitude Azimuth
Cosmos 1455 Rocket 4.5 17:08:15 10° NNE 17:11:16 18° ENE 17:14:16 10° ESE
GEOS 3 Rocket 4.2 17:10:04 10° ESE 17:14:40 35° NE 17:19:18 10° NNW
Nadezhda 1 Rocket 4.4 17:15:22 10° SSW 17:21:23 68° W 17:27:31 10° N
Cosmos 1048 Rocket 4.0 17:16:47 10° NNW 17:22:07 77° ENE 17:27:27 10° SSE
Cosmos 2341 Rocket 4.0 17:17:31 10° N 17:23:46 75° E 17:29:58 10° SSE
CORIOLIS 4.3 17:18:53 10° SE 17:24:08 53° ENE 17:29:23 10° N
Cosmos 158 Rocket 4.1 17:19:16 10° NNW 17:24:35 57° ENE 17:29:47 10° SE
COSMOS 2406 3.2 17:19:58 10° NNW 17:25:40 65° ENE 17:31:22 10° SE
CZ-3B DEB 3.1 17:24:23 10° S 17:27:42 29° ESE 17:34:11 11° ENE
CZ-3A R/B 3.1 17:24:35 10° SW 17:28:43 89° NW 17:49:56 10° NE
Cosmos 2278 Rocket 3.7 17:25:32 10° SE 17:29:03 17° E 17:31:57 12° ENE
Cosmos 1602 4.5 17:28:05 10° NNW 17:31:58 57° W 17:35:48 10° S
Cosmos 1484 Rocket 3.7 17:29:18 10° ESE 17:32:22 24° ENE 17:35:26 10° NNE
ATLAS CENTAUR R/B 4.0 17:33:47 10° WNW 17:36:07 13° NNW 17:38:23 10° N
CZ-2C R/B 2.4 17:31:34 10° SSE 17:36:29 75° ENE 17:41:35 10° N
Meteor 1-5 Rocket 4.1 17:31:11 10° N 17:36:33 66° ENE 17:42:01 10° SSE
SPOT 3 Rocket 3.5 17:33:43 10° SSE 17:38:54 83° ENE 17:44:07 10° NNW
Cosmos 1238 Rocket 3.3 17:40:33 10° SE 17:42:59 23° E 17:43:57 20° ENE
CRYOSAT 2 4.3 17:41:07 10° N 17:46:02 75° E 17:50:55 10° S
Cosmos 1536 3.5 17:46:15 10° NNW 17:50:16 60° W 17:54:16 10° S
Cosmos 2082 Rocket 3.5 17:47:24 10° N 17:51:24 19° NE 17:52:44 18° ENE
Okean 1 4.4 17:48:56 10° SE 17:52:14 25° E 17:53:41 20° ENE
IDEFIX/ARIANE 42P 2.7 17:48:03 10° S 17:53:16 81° WSW 17:58:30 10° NNW
COSMOS 2441 4.4 17:49:10 10° SSE 17:53:56 59° ENE 17:58:45 10° N
USA 32 4.0 17:52:05 10° S 17:57:16 70° E 18:02:29 10° N
COSMO-SKYMED 1 3.1 17:53:45 13° NNE 17:57:20 37° E 18:01:22 10° SSE
Cosmos 1833 Rocket 4.0 17:55:29 10° N 17:59:26 19° NE 17:59:57 19° NE
Cosmos 1544 Rocket 3.5 17:55:07 10° N 17:59:34 68° E 18:04:00 10° SSE
Cosmos 1500 4.4 17:57:41 10° NNE 18:03:20 15° ESE 18:04:10 10° SE
Cosmos 864 Rocket 4.5 17:57:38 10° N 18:03:53 65° E 18:10:08 10° SSE
Cosmos 1975 Rocket 3.5 17:59:42 10° SSW 18:03:58 63° W 18:08:17 10° N
Meteor 1-28 Rocket 4.4 18:04:52 23° ESE 18:04:52 23° ESE 18:07:35 10° SSE
SL-24 DEB 4.4 18:01:05 10° NNE 18:05:46 53° E 18:10:22 10° S
SMAP 3.9 18:04:25 10° S 18:08:58 53° W 18:13:32 10° NNW
Meteor 1-18 Rocket 4.2 18:04:17 10° S 18:09:47 59° E 18:15:24 10° NNE
Cosmos 372 Rocket 4.4 18:05:35 10° SSW 18:10:48 66° WNW 18:16:04 10° NNE
CZ-4 R/B 3.3 18:08:52 10° SSW 18:12:40 33° W 18:16:29 10° NNW
Cosmos 1346 Rocket 4.1 18:12:07 10° SSE 18:14:10 22° ESE 18:14:10 22° ESE
Thor Agena Rocket 4.2 18:11:21 10° N 18:16:25 56° WNW 18:21:31 10° SSW
MSX 4.0 18:10:58 10° S 18:16:44 77° WSW 18:22:31 10° NNW
Cosmos 1812 2.6 18:16:20 10° S 18:20:10 73° E 18:22:34 22° NNE
Cosmos 1536 Rocket 3.5 18:16:03 10° S 18:20:26 61° E 18:23:38 18° NNE
Cosmos 2263 Rocket 4.2 18:16:08 10° WSW 18:20:35 24° NW 18:25:06 10° N
METEOR-M 4.5 18:15:58 10° SE 18:20:54 40° ENE 18:25:52 10° N
Abrixas 3.4 18:19:08 10° WNW 18:21:48 35° N 18:21:48 35° N
USA 234 3.9 18:17:20 18° NE 18:22:00 49° NNW 18:28:14 10° W
NOAA 12 4.2 18:18:25 10° SE 18:23:29 49° ENE 18:28:33 10° N
OTV 4 3.0 18:23:35 10° SW 18:25:28 15° SSW 18:26:41 13° SSE
Cosmos 494 Rocket 3.9 18:20:40 10° NNW 18:25:56 82° ENE 18:31:12 10° SSE
YAOGAN 1 4.3 18:23:02 10° SSW 18:26:59 35° W 18:30:59 10° NNW
SKYMED 3 4.4 18:24:07 17° NNE 18:27:27 79° ESE 18:31:47 10° S
Cosmos 1975 2.7 18:26:36 10° N 18:30:42 74° E 18:34:44 10° SSE
BREEZE M DEB (TANK) 3.3 18:29:00 10° WNW 18:32:18 55° NNE 18:34:57 33° E
Cosmos 2251 Rocket 3.7 18:28:05 10° NNW 18:33:27 76° WSW 18:38:45 10° SSE
SL-27 R/B 3.6 18:33:04 10° NNW 18:36:36 45° WSW 18:40:06 10° S
Meteor 1-12 Rocket 4.3 18:31:24 10° NNW 18:37:11 80° W 18:43:02 10° S
NOSS 3-3 (A) 4.1 18:31:45 10° SSW 18:37:44 53° ESE 18:39:53 38° ENE
NOSS 3-3 (C) 4.1 18:31:53 10° SSW 18:37:50 52° ESE 18:39:57 38° ENE
ISS -2.8 18:41:23 10° WSW 18:44:12 59° W 18:44:12 59° W
ATLAS 2AS CENTAUR R/B 3.2 18:37:08 10° NW 18:45:12 73° WSW 18:52:43 10° SSE
SKYMED 2 3.8 18:42:23 18° N 18:45:30 67° WNW 18:49:48 10° SSW
Meteor 2-21 Rocket 4.4 18:39:47 10° N 18:45:59 65° E 18:52:06 10° SSE
Cosmos 1844 Rocket 3.3 18:41:20 10° SW 18:46:48 54° WNW 18:50:53 18° NNE
Cosmos 1455 Rocket 4.2 18:45:10 10° NNW 18:49:21 45° W 18:53:33 10° SSW
Meteor 2-16 Rocket 4.3 18:46:22 10° N 18:52:24 60° ENE 18:58:23 10° SSE
DMSP B5D1-3 4.5 18:48:46 20° NNE 18:52:27 84° WNW 18:57:34 10° SSW
GEOS 3 Rocket 4.4 18:47:39 10° SSE 18:52:36 49° WSW 18:57:34 10° NW
Cosmos 1844 4.0 18:48:43 10° SW 18:54:13 63° WNW 18:57:21 26° NNE
Cosmos 2297 4.4 18:49:37 10° S 18:53:31 35° SE 18:53:31 35° SE
SL-8 R/B 4.2 18:50:48 10° SW 18:55:03 46° SSE 18:55:03 46° SSE
Timation 2 Rocket 4.1 18:49:16 10° NNW 18:56:00 62° ENE 18:58:19 42° ESE
Cosmos 1535 Rocket 4.5 18:50:46 10° N 18:57:02 57° ENE 19:03:10 10° SSE
Meteor 1-19 Rocket 4.4 18:55:22 10° S 19:00:14 53° SE 19:00:14 53° SE
BREEZE M DEB (TANK) 3.1 18:54:58 10° SW 19:01:08 47° S 19:01:08 47° S
Cosmos 2278 Rocket 2.3 19:06:49 10° SSW 19:12:27 73° WNW 19:13:52 51° N
Meteor 1-13 Rocket 4.1 19:09:03 10° S 19:14:42 89° E 19:15:32 67° NNE
Cosmos 2239 Rocket 4.3 19:09:50 10° N 19:16:07 81° E 19:22:16 10° S
Cosmos 1821 Rocket 3.8 19:17:48 10° N 19:23:57 88° E 19:24:17 81° SSE
Cosmos 2082 Rocket 2.8 19:30:32 10° NNW 19:34:39 50° NNW 19:34:39 50° NNW
Cosmos 1833 Rocket 3.8 19:38:26 10° NNW 19:41:42 36° NNW 19:41:42 36° NNW
ATLAS 3B CENTAUR R/B 4.4 19:50:03 10° WSW 19:58:41 23° SSW 19:59:39 22° S
CZ-3B DEB 3.6 19:56:48 10° W 20:02:20 56° NNW 20:03:15 53° N
FALCON 9 R/B 4.2 20:22:14 10° WSW 20:31:06 32° SW 20:31:06 32° SW
